Location: College Park
(38.9810°N, 76.9370°W)
Time: 18:56:14
(UTC-05:00)

ISS - Pass Details

Date: 15 November 2017
Orbit: 401 x 407 km, 51.6° (Epoch: 25 November)

Event Time Altitude Azimuth Distance (km) Brightness Sun altitude
Exits shadow 05:06:21 25° 12° (NNE) 862 -2.2 -20.3°
Maximum altitude 05:06:50 26° 28° (NNE) 836 -2.1 -20.2°
Drops below altitude 10° 05:09:38 10° 88° (E) 1,450 0.1 -19.7°
Sets 05:11:55 0° 101° (E) 2,306 1.7 -19.3°
